カタログに戻る

CHINASAT 9B

運用中通信GEO
NORAD 49125·PAYLOAD·🇨🇳 China

打ち上げ Sep 9, 2021 から Xichang Satellite Launch Center

Loading…

TLE

最新Source: Space-Track

元期: Sep 14, 2026, 14:17 UTC

1 49125U 21080A   26257.59520777 -.00000321  00000-0  00000-0 0  9993
2 49125   0.0488 255.1564 0003327 285.5938 128.5098  1.00273265 18543

AllMySatでCHINASAT 9Bをリアルタイム追跡

Download on the App Store